FW9001 Weather Reports


time (UTC)temp
F
wind
direction
speed
knots
gust
knots
rain 1hr
in
rain 24hr
in
rain mn
in
humidity
%
barometer
mb
20260906090039 67 34 3.5 4.3 0.00 0.00 0.00 97 1017.5
20260906080034 68 25 4.3 4.3 0.00 0.00 0.00 97 1017.5
20260906063037 69 29 2.6 4.3 0.00 0.00 0.00 97 1017.4
20260906061534 69 29 2.6 5.2 0.00 0.00 0.00 96 1017.4
20260906053041 70 63 3.5 5.2 0.00 0.00 0.00 95 1017.0
20260905221535 76 346 13.0 19.1 0.00 0.00 0.00 86 1014.6
20260905204536 78 346 12.2 15.6 0.00 0.00 0.00 83 1014.2
20260905193038 83 1 10.4 15.6 0.00 0.00 0.00 78 1014.5
20260905183033 83 25 7.8 15.6 0.00 0.00 0.00 76 1014.4
20260905180037 83 21 6.1 11.3 0.00 0.00 0.00 79 1014.5
20260905174533 83 32 5.2 11.3 0.00 0.00 0.00 83 1014.4
20260905171539 83 356 5.2 7.8 0.00 0.00 0.00 85 1014.7
20260905170035 83 44 7.0 10.4 0.00 0.00 0.00 84 1014.7
20260905163035 81 56 6.1 9.6 0.00 0.00 0.00 89 1014.9
20260905161537 81 30 7.0 8.7 0.00 0.00 0.00 88 1014.9
20260905153050 80 34 6.1 7.8 0.00 0.00 0.00 89 1014.8
20260905151539 80 39 6.1 7.8 0.00 0.00 0.00 92 1014.7
20260905144538 80 26 4.3 7.0 0.00 0.00 0.00 94 1014.3
20260905140034 80 23 0.9 1.7 0.00 0.00 0.00 94 1014.4
20260905131553 76 63 2.6 2.6 0.00 0.00 0.00 99 1014.1
20260905130040 76 51 1.7 3.5 0.00 0.00 0.00 99 1014.0
20260905124534 76 0 0.0 0.9 0.00 0.00 0.00 99 1014.0
20260905121539 74 0 0.0 1.7 0.00 0.00 0.00 99 1013.6
20260905120041 74 0 0.0 0.9 0.00 0.00 0.00 98 1013.4
20260905113035 75 0 0.9 2.6 0.00 0.00 0.00 99 1013.1
20260905111557 75 169 0.9 1.7 0.00 0.00 0.00 99 1013.0
20260905110032 75 237 1.7 2.6 0.00 0.00 0.00 99 1013.0
20260905103037 74 0 0.0 0.0 0.00 0.00 0.00 99 1013.3
20260905101536 74 0 0.0 0.0 0.00 0.00 0.00 99 1013.1